Aérodrome :
LOGIN :

S'inscrire | Disclaimer

   EN    FR    IT 

 










Légende :    VFR   VFR Marginal   IFR   IFR Intensif   IFR Très Intensif
Visi : 
Plafond : 
>= 8 km
>= 3000ft
5 à 8 km
1000 à 3000 ft
1500m à 5 km
500 à 1000 ft
800 à 1500m
200 à 500 ft
< 800m
< 200 ft
Symboles :   Orages  Brouillard  Fortes neiges  Fortes précipitations  Vent > 20 kt
SIGMETs :   Divers  Orages  Givrage  Turbulence  Onde Orograph.  Cendres Volcan.







- Altitude de l'aérodrome : 238 ft
- Code IATA : FAB
- Voir les cartes d'approche


EGLF - Farnborough

DERNIER METAR :
  • 220820Z AUTO 06005KT 7000 NCD 13/07 Q1007

METARs EXPIRÉS :
  • 220750Z AUTO 07004KT 6000 NCD 12/06 Q1007
  • 220720Z AUTO VRB01KT 7000 NCD 09/05 Q1008
  • 220650Z AUTO 23002KT 6000 NCD 07/04 Q1008
  • 220620Z AUTO 21002KT 7000 NCD 06/03 Q1008
  • 220550Z AUTO 22003KT 8000 NCD 04/02 Q1008

TAF TAF EGLF
Valide du 22 à 09h jusqu'au 22 à 18h UTC


220758Z 2209/2218 06005KT 8000 NSC
BECMG 2209/2212 CAVOK
ATIS : +44 09063 800 400 (*282)
Pas de NOTAMs connus pour ce terrain.



MET'MAP, la Météo Aéronautique d'un coup d'oeil ! - Copyright ORBIFLY Décembre 2007 - Disclaimer

ORBIFLY MET'MAP TEAM :

Programmation & Développement : Alexandra Zaïnal
Conception & Développement : Baudouin d'Aumeries
Co-Programmation & Développement : Marc-Olivier Méhu
Soutien technique & logistique : Manuel Goepfert

Contact : metmap@orbifly.com




SOURCES & CREDITS :

   NOAA